Weather History for Truth Or Consequences, NM

Change the Weather History Date:

Saturday, December 21, 2013

  Actual Average Record
Temperature  
Mean Temperature 38 °F -  
Max Temperature 47 °F 52 °F 66 °F (2003)
Min Temperature 29 °F 27 °F 19 °F (1999)
Degree Days  
Heating Degree Days 27    
Month to date heating degree days 498  
Since 1 July heating degree days 1166  
Moisture  
Dew Point 30 °F    
Average Humidity 75    
Maximum Humidity 100    
Minimum Humidity 49    
Precipitation  
Precipitation 0.14 in - 0.14 in (2013)
Month to date precipitation 0.50  
Year to date precipitation 12.21  
Sea Level Pressure  
Sea Level Pressure 29.62 in    
Wind  
Wind Speed 6 mph (WSW)    
Max Wind Speed 21 mph    
Max Gust Speed 28 mph    
Visibility 7 miles    
Events Fog , Rain , Snow    
T = Trace of Precipitation, MM = Missing Value Source: NWS Daily Summary

Daily Weather History Graph

Daily Weather History Graph

Search for Another Location

Airport:

Trip Planner

Search our weather history database for the weather conditions in past years. The results will help you decide how hot, cold, wet, or windy it might be!

Date:

Astronomy

Dec. 21, 2013 Rise Set
Actual Time 7:08 AM MST 5:06 PM MST
Civil Twilight 6:41 AM MST 5:33 PM MST
Nautical Twilight 6:10 AM MST 6:04 PM MST
Astronomical Twilight 5:40 AM MST 6:34 PM MST
Moon 9:13 PM MST (12/21) 9:46 AM MST (12/21)
Length of Visible Light 10h 52m
Length of Day
9h 57m
Waning Gibbous, 84% of the Moon is Illuminated
Dec 21
Waning Gibbous
Dec 25
Last Quarter
Jan 1
New
Jan 7
First Quarter
Jan 15
Full

Hourly Weather History & Observations

Time (MST) Temp. Windchill Dew Point Humidity Pressure Visibility Wind Dir Wind Speed Gust Speed Precip Events Conditions
12:53 AM 37.0 °F 31.0 °F 34.0 °F 89% 29.53 in 10.0 mi WSW 8.1 mph - 0.00 in   Overcast
1:31 AM 33.8 °F 27.0 °F 32.0 °F 93% 29.62 in 7.0 mi West 8.1 mph - 0.01 in Snow Light Snow
1:53 AM 34.0 °F 26.6 °F 32.0 °F 92% 29.55 in 3.0 mi SW 9.2 mph - 0.03 in Snow Light Snow
2:00 AM 33.8 °F 25.8 °F 32.0 °F 93% 29.61 in 2.0 mi SSW 10.4 mph - 0.01 in Snow Light Snow
2:07 AM 33.8 °F 27.0 °F 32.0 °F 93% 29.60 in 1.8 mi SSW 8.1 mph - 0.02 in Snow Light Snow
2:51 AM 32.0 °F 26.4 °F 32.0 °F 100% 29.59 in 1.2 mi SSW 5.8 mph - 0.09 in Snow Light Snow
2:53 AM 32.0 °F 26.4 °F 32.0 °F 100% 29.53 in 1.2 mi SSW 5.8 mph - 0.09 in Snow Light Snow
3:01 AM 32.0 °F 26.4 °F 32.0 °F 100% 29.59 in 2.0 mi SSW 5.8 mph - 0.01 in Snow Light Snow
3:19 AM 32.0 °F 27.5 °F 32.0 °F 100% 29.59 in 3.0 mi SSW 4.6 mph - 0.02 in Snow Light Snow
3:29 AM 32.0 °F 26.4 °F 32.0 °F 100% 29.59 in 5.0 mi SW 5.8 mph - 0.02 in Snow Light Snow
3:42 AM 32.0 °F 28.7 °F 32.0 °F 100% 29.59 in 9.0 mi WSW 3.5 mph - 0.02 in   Overcast
3:53 AM 32.0 °F 26.4 °F 32.0 °F 100% 29.52 in 10.0 mi West 5.8 mph - 0.02 in   Overcast
4:12 AM 33.8 °F 28.6 °F 32.0 °F 93% 29.58 in 7.0 mi West 5.8 mph - 0.00 in Snow Light Snow
4:53 AM 33.1 °F 28.7 °F 32.0 °F 96% 29.52 in 10.0 mi SW 4.6 mph - 0.00 in   Overcast
5:07 AM 32.0 °F - 32.0 °F 100% 29.58 in 10.0 mi Calm Calm - N/A   Overcast
5:30 AM 32.0 °F - 32.0 °F 100% 29.59 in 10.0 mi Calm Calm - N/A   Overcast
5:50 AM 32.0 °F 27.5 °F 30.2 °F 93% 29.59 in 0.8 mi West 4.6 mph - N/A   Overcast
5:53 AM 32.0 °F 27.5 °F 30.9 °F 96% 29.54 in 0.5 mi West 4.6 mph - N/A Fog Fog
6:31 AM 30.2 °F 25.4 °F 28.4 °F 93% 29.60 in 1.2 mi WSW 4.6 mph - N/A   Scattered Clouds
6:34 AM 30.2 °F 24.3 °F 30.2 °F 100% 29.61 in 3.0 mi West 5.8 mph - N/A   Scattered Clouds
6:53 AM 28.9 °F 21.9 °F 28.0 °F 96% 29.57 in 3.0 mi SW 6.9 mph - N/A   Partly Cloudy
7:53 AM 32.0 °F 25.6 °F 28.9 °F 88% 29.58 in 10.0 mi WNW 6.9 mph - N/A   Partly Cloudy
8:53 AM 39.9 °F - 30.0 °F 68% 29.59 in 10.0 mi Calm Calm - N/A   Overcast
9:53 AM 42.1 °F 38.4 °F 34.0 °F 73% 29.61 in 10.0 mi South 5.8 mph - N/A   Clear
10:53 AM 45.0 °F 41.8 °F 30.0 °F 56% 29.62 in 10.0 mi WNW 5.8 mph - N/A   Mostly Cloudy
11:53 AM 44.1 °F 41.5 °F 28.9 °F 55% 29.60 in 10.0 mi NW 4.6 mph - N/A   Mostly Cloudy
12:53 PM 45.0 °F - 27.0 °F 49% 29.59 in 10.0 mi Calm Calm - N/A   Overcast
1:53 PM 46.0 °F 41.4 °F 28.9 °F 51% 29.58 in 10.0 mi SSW 9.2 mph - N/A   Overcast
2:53 PM 46.0 °F 42.5 °F 30.0 °F 54% 29.59 in 10.0 mi WSW 6.9 mph - N/A   Overcast
3:53 PM 46.0 °F 43.9 °F 30.0 °F 54% 29.61 in 10.0 mi WSW 4.6 mph - 0.00 in   Overcast
4:53 PM 44.1 °F 39.0 °F 30.0 °F 58% 29.65 in 10.0 mi NW 9.2 mph - 0.00 in Rain Light Rain
5:53 PM 42.1 °F 37.1 °F 30.0 °F 62% 29.70 in 10.0 mi NW 8.1 mph - N/A   Overcast
6:53 PM 41.0 °F 34.7 °F 28.9 °F 62% 29.74 in 10.0 mi West 10.4 mph - N/A   Mostly Cloudy
7:53 PM 39.9 °F 37.8 °F 28.9 °F 65% 29.77 in 10.0 mi WSW 3.5 mph - N/A   Mostly Cloudy
8:53 PM 39.9 °F 37.8 °F 28.9 °F 65% 29.77 in 10.0 mi SSW 3.5 mph - N/A   Overcast
9:53 PM 39.9 °F 35.1 °F 27.0 °F 60% 29.78 in 10.0 mi West 6.9 mph - N/A   Overcast
10:53 PM 39.0 °F 32.8 °F 27.0 °F 62% 29.79 in 10.0 mi West 9.2 mph - N/A   Mostly Cloudy
11:53 PM 33.1 °F 28.7 °F 27.0 °F 78% 29.84 in 10.0 mi West 4.6 mph - N/A   Clear